FW6834 Weather Reports


Display with metric or nautical units.
time (UTC)temp
F
wind
direction
speed
MPH
gust
MPH
rain 1hr
in
rain 24hr
in
rain mn
in
humidity
%
barometer
mb
20260510135102 60 96 2.0 7.0 0.02 0.00 1.07 89 1056.2
20260510133603 60 100 3.0 3.0 0.11 0.00 1.07 90 1056.9
20260510132103 60 28 2.0 3.0 0.11 0.00 1.06 91 1057.9
20260510130603 59 78 4.0 5.0 0.24 0.00 1.06 91 1056.9
20260510125602 59 67 3.0 6.0 0.30 0.00 1.04 91 1057.2
20260510124102 59 49 4.0 9.0 0.36 0.00 0.97 91 1057.2
20260510122602 59 185 4.0 7.0 0.59 0.00 0.95 91 1056.6
20260510121102 59 61 2.0 7.0 0.51 0.00 0.83 90 1057.2
20260510115603 59 144 0.0 5.0 0.41 0.00 0.73 89 1056.9
20260510114102 60 120 1.0 8.0 0.12 0.00 0.44 88 1056.6
20260510112602 60 352 2.0 6.0 0.04 0.00 0.35 91 1055.5
20260510111102 60 76 6.0 6.0 0.06 0.00 0.32 92 1054.2
20260510105602 60 114 0.0 0.0 0.30 0.00 0.32 92 1052.8
20260510104102 60 323 2.0 4.0 0.31 0.00 0.32 91 1052.5
20260510103102 60 121 2.0 7.0 0.31 0.00 0.32 91 1052.2
20260510094601 61 75 0.0 0.0 0.01 0.00 0.01 87 1051.5
20260510093102 61 180 0.0 3.0 0.01 0.00 0.01 86 1051.5
20260510084602 62 151 3.0 6.0 0.00 0.00 0.00 84 1051.8
20260510081602 62 177 3.0 4.0 0.00 0.00 0.00 83 1051.8
20260510074602 62 190 5.0 8.0 0.00 0.00 0.00 81 1051.8
20260510073103 62 168 7.0 10.0 0.00 0.00 0.00 80 1052.2
20260510071603 62 161 8.0 9.0 0.00 0.00 0.00 80 1051.8
20260510064602 61 189 3.0 8.0 0.00 0.00 0.00 83 1052.8
20260510063102 61 140 7.0 8.0 0.00 0.00 0.00 83 1053.8
20260510061602 61 136 5.0 8.0 0.00 0.00 0.00 82 1054.5
20260510054602 61 90 9.0 15.0 0.00 0.00 0.00 82 1053.8
20260510053102 61 115 9.0 9.0 0.01 0.00 0.00 85 1053.2
20260510051602 62 43 3.0 9.0 0.13 0.00 0.00 84 1053.2
20260510043602 64 186 0.0 7.0 0.24 0.00 0.24 83 1053.2
20260510042102 66 27 4.0 9.0 0.15 0.00 0.15 78 1055.2
20260510040602 70 307 8.0 18.0 0.01 0.00 0.01 64 1054.2
20260510035102 74 327 4.0 6.0 0.00 0.00 0.00 50 1051.8
20260510032102 74 192 8.0 11.0 0.00 0.00 0.00 48 1048.8
20260510030602 75 114 9.0 9.0 0.00 0.00 0.00 48 1048.8
20260510025103 76 118 7.0 13.0 0.00 0.00 0.00 47 1049.4
20260510020602 76 128 7.0 10.0 0.00 0.00 0.00 46 1048.1
20260510015102 77 144 4.0 9.0 0.00 0.00 0.00 45 1047.4
20260510013602 78 124 6.0 10.0 0.00 0.00 0.00 44 1047.4
20260510012102 78 141 3.0 6.0 0.00 0.00 0.00 42 1047.7
20260510010602 79 97 3.0 7.0 0.00 0.00 0.00 41 1047.4
20260510005102 80 130 4.0 6.0 0.00 0.00 0.00 41 1047.7
20260510003602 81 163 6.0 7.0 0.00 0.00 0.00 40 1047.4
20260510002102 81 159 3.0 10.0 0.00 0.00 0.00 40 1047.4
20260510000603 82 174 3.0 8.0 0.00 0.00 0.00 40 1047.7
20260509235102 83 123 7.0 8.0 0.00 0.00 0.00 37 1047.4
20260509233603 85 215 6.0 10.0 0.00 0.00 0.00 35 1047.7
20260509232103 85 94 9.0 10.0 0.00 0.00 0.00 35 1047.7
20260509230603 85 112 6.0 10.0 0.00 0.00 0.00 32 1047.7
20260509223603 86 129 4.0 10.0 0.00 0.00 0.00 32 1048.1
20260509222102 86 99 5.0 10.0 0.00 0.00 0.00 32 1048.4
20260509220603 87 115 6.0 8.0 0.00 0.00 0.00 30 1048.4
20260509215102 87 86 6.0 9.0 0.00 0.00 0.00 31 1048.4
20260509213602 88 130 4.0 7.0 0.00 0.00 0.00 30 1048.8
20260509212102 87 38 7.0 8.0 0.00 0.00 0.00 30 1048.8
20260509205103 87 55 4.0 10.0 0.00 0.00 0.00 32 1049.1
20260509204102 87 38 6.0 9.0 0.00 0.00 0.00 30 1049.1
20260509202602 89 173 6.0 7.0 0.00 0.00 0.00 29 1049.4
20260509201102 87 153 7.0 8.0 0.00 0.00 0.00 31 1049.8
20260509195602 87 159 4.0 8.0 0.00 0.00 0.00 30 1049.8
20260509194102 89 148 5.0 8.0 0.00 0.00 0.00 30 1050.1
20260509192603 87 198 4.0 6.0 0.00 0.00 0.00 29 1050.1
20260509191102 87 153 4.0 8.0 0.00 0.00 0.00 30 1050.5
20260509185602 86 195 4.0 8.0 0.00 0.00 0.00 32 1050.5
20260509184102 85 148 3.0 9.0 0.00 0.00 0.00 33 1050.8
20260509182602 85 167 2.0 7.0 0.00 0.00 0.00 32 1050.8
20260509181102 86 92 3.0 5.0 0.00 0.00 0.00 31 1050.8
20260509175602 86 103 4.0 9.0 0.00 0.00 0.00 33 1051.1
20260509174103 85 226 7.0 7.0 0.00 0.00 0.00 33 1051.5
20260509173102 86 287 6.0 8.0 0.00 0.00 0.00 35 1051.5
20260509171602 85 154 6.0 7.0 0.00 0.00 0.00 35 1051.5
20260509164603 80 111 4.0 7.0 0.00 0.00 0.00 48 1051.8
20260509163102 79 138 4.0 8.0 0.00 0.00 0.00 54 1052.2
20260509161603 77 115 3.0 6.0 0.00 0.00 0.00 60 1052.2
20260509154602 74 162 4.0 5.0 0.00 0.00 0.00 64 1052.2
20260509153102 74 147 3.0 6.0 0.00 0.00 0.00 61 1051.8
20260509151603 75 109 4.0 5.0 0.00 0.00 0.00 55 1051.8
20260509144602 74 82 4.0 4.0 0.00 0.00 0.00 66 1051.5
20260509143302 73 96 0.0 0.0 0.00 0.00 0.00 67 1051.8
20260509141603 71 262 0.0 0.0 0.00 0.00 0.00 70 1051.8